Impacts METAR Board INFO
IDs:

KORD - Chicago/O'Hare Intl, IL, US

Updated at: 0230 UTC 12 Dec 2017
Potential Impact None Slight Moderate High
Time11/14Z 11/15Z 11/16Z 11/17Z 11/18Z 11/19Z 11/20Z 11/21Z 11/22Z 11/23Z 12/00Z 12/01Z 12/02Z
VIS10 10 10 10 10 10 10 10 10 2 0.75 7 8
CIG65 65 150 110 100 85 150 110 150 17 5 50 36
CoverOVCOVCOVCOVCOVCOVCOVCOVCOVCOVCOVXOVCOVC
FltCatVFRVFRVFRVFRVFRVFRVFRVFRVFRIFRLIFRVFRVFR
WX-------------------SN BR-SN BR----
WDir18019017016016016013060360330310330330
WSpd8 10 11 9 10 7 6 5 7 8 6 10 15
WGst-- -- -- -- -- -- -- -- -- -- -- -- --
Raw hourly METARs
KORD 111351Z 18008KT 10SM OVC065 M02/M06 A2992 RMK AO2 SLP139 T10171061
KORD 111451Z 19010KT 10SM BKN065 OVC200 M01/M06 A2989 RMK AO2 SLP129 T10111056 58025
KORD 111551Z 17011KT 10SM FEW065 BKN150 OVC250 00/M06 A2985 RMK AO2 SLP114 VIRGA W-N T00001056
KORD 111651Z 16009KT 10SM BKN110 BKN160 OVC250 01/M05 A2978 RMK AO2 SLP093 T00061050
KORD 111751Z 16010KT 10SM BKN100 OVC250 02/M04 A2974 RMK AO2 SLP077 T00171044 10017 21022 57050
KORD 111851Z 16007KT 10SM BKN085 BKN110 BKN160 OVC250 03/M04 A2970 RMK AO2 SLP063 T00281039
KORD 111951Z 13006KT 10SM FEW110 BKN150 OVC250 03/M04 A2967 RMK AO2 SLP052 VIRGA S-W T00331039
KORD 112051Z 06005KT 10SM FEW090 BKN110 OVC150 03/M04 A2966 RMK AO2 SLP052 T00331039 56025
KORD 112151Z 36007KT 10SM FEW075 SCT100 OVC150 03/M04 A2969 RMK AO2 SLP062 T00281039
KORD 112302Z 33008KT 2SM -SN BR BKN017 OVC038 01/M02 A2973 RMK AO2 P0001 T00061017
KORD 112351Z 31006KT 3/4SM R10L/4000V5500FT -SN BR VV005 01/M01 A2975 RMK AO2 SLP081 SNINCR 1/1 4/001 P0007 60007 T00061006 10039 20006 53028
KORD 120051Z 33010KT 7SM FEW025 BKN050 OVC075 01/M01 A2976 RMK AO2 SNE44 SLP084 P0001 T00061011
KORD 120151Z 33015KT 8SM FEW020 BKN036 OVC060 01/M02 A2979 RMK AO2 SLP093 T00061022